EW8588 Weather Reports


time (UTC)temp
C
wind
direction
speed
KPH
gust
KPH
rain 1hr
cm
rain 24hr
cm
rain mn
cm
humidity
%
barometer
mb
20260504223022 24 177 1.6 9.7 0.00 0.00 0.00 69 1010.3
20260504221519 24 153 1.6 9.7 0.00 0.00 0.00 69 1010.6
20260504220019 24 131 3.2 9.7 0.00 0.00 0.00 68 1010.6
20260504214518 25 73 3.2 11.3 0.00 0.00 0.00 67 1010.7
20260504213016 25 176 3.2 8.0 0.00 0.00 0.00 65 1010.8
20260504211515 25 87 3.2 9.7 0.00 0.00 0.00 65 1010.8
20260504210021 25 200 4.8 9.7 0.00 0.00 0.00 64 1011.1
20260504204513 25 158 1.6 8.0 0.00 0.00 0.00 65 1011.2
20260504203011 26 134 3.2 11.3 0.00 0.00 0.00 61 1011.4
20260504201513 26 158 1.6 8.0 0.00 0.00 0.00 60 1011.5
20260504200010 26 278 0.0 8.0 0.00 0.00 0.00 59 1011.8
20260504194507 26 182 3.2 8.0 0.00 0.00 0.00 61 1011.8
20260504193007 27 132 0.0 11.3 0.00 0.00 0.00 61 1012.2
20260504191506 27 120 0.0 9.7 0.00 0.00 0.00 59 1012.3
20260504190004 27 168 1.6 8.0 0.00 0.00 0.00 57 1012.4
20260504184502 27 110 1.6 8.0 0.00 0.00 0.00 57 1012.3
20260504183107 27 120 1.6 8.0 0.00 0.00 0.00 56 1012.5
20260504181600 26 251 1.6 8.0 0.00 0.00 0.00 62 1012.9
20260504180111 26 214 3.2 12.9 0.00 0.00 0.00 58 1013.0
20260504174555 26 176 3.2 11.3 0.00 0.00 0.00 56 1013.1
20260504173053 26 148 1.6 8.0 0.00 0.00 0.00 57 1013.4
20260504171550 26 153 4.8 12.9 0.00 0.00 0.00 58 1013.5
20260504081539 15 177 0.0 0.0 0.00 0.00 0.00 79 1014.7
20260504080137 15 176 0.0 0.0 0.00 0.00 0.00 79 1015.1
20260504050016 15 168 0.0 0.0 0.00 0.00 0.00 78 1016.7
20260504044515 15 168 0.0 0.0 0.00 0.00 0.00 77 1016.9
20260504043017 15 168 0.0 0.0 0.00 0.00 0.00 75 1017.0
20260504041514 16 168 0.0 0.0 0.00 0.00 0.00 74 1016.8
20260504040017 16 168 0.0 0.0 0.00 0.00 0.00 70 1016.8
20260504034514 17 168 0.0 0.0 0.00 0.00 0.00 70 1017.0
20260504033013 17 168 0.0 0.0 0.00 0.00 0.00 68 1016.9
20260504031512 17 170 0.0 0.0 0.00 0.00 0.00 66 1016.8
20260504030013 17 100 0.0 0.0 0.00 0.00 0.00 66 1016.7
20260504024513 18 74 0.0 0.0 0.00 0.00 0.00 65 1016.8
20260504023012 18 72 0.0 0.0 0.00 0.00 0.00 64 1016.8
20260504021511 18 71 0.0 0.0 0.00 0.00 0.00 63 1016.8
20260504020013 18 82 0.0 1.6 0.00 0.00 0.00 61 1016.7
20260504014511 19 132 0.0 3.2 0.00 0.00 0.00 60 1016.7
20260504013017 20 166 0.0 1.6 0.00 0.00 0.00 59 1016.8
20260504011509 20 139 0.0 0.0 0.00 0.00 0.00 56 1016.6
20260504010009 20 167 0.0 4.8 0.00 0.00 0.00 54 1016.6
20260504004510 21 186 0.0 3.2 0.00 0.00 0.00 52 1016.5
20260504003008 21 203 0.0 6.4 0.00 0.00 0.00 51 1016.5
20260504001508 22 185 1.6 6.4 0.00 0.00 0.00 50 1016.6
20260504000017 22 119 1.6 8.0 0.00 0.00 0.00 47 1016.6
20260503234505 22 148 1.6 6.4 0.00 0.00 0.00 46 1016.7
20260503233008 22 107 0.0 8.0 0.00 0.00 0.00 46 1016.9
20260503231503 23 135 1.6 8.0 0.00 0.00 0.00 47 1016.9
20260503230002 23 200 3.2 8.0 0.00 0.00 0.00 44 1017.0
20260503224502 23 131 1.6 8.0 0.00 0.00 0.00 44 1017.0